This demonstration page uses our WeatherBlox Daily Observations layout. Learn more.

Left ArrowRight Arrow

39.12711, -84.51439

Hourly Observations for January 17, 2017

Temp ( °F °C ) Dew Point ( °F °C ) Humidity (%) Winds ( mph kmh ) Pressure ( in mb ) Visibility ( mi km ) Precip ( " mm )
12:27 am 00:27 Cloudy with Rain 48 8.9 48 8.9 100 100 Calm 30.03 1017 2 3 0.03 0.76
12:53 am 00:53 Cloudy with Light Rain 48 8.9 48 8.9 100 100 Calm 30.02 1017 3 5 0.05 1.27
1:09 am 01:09 Cloudy with Light Rain 49 9.4 49 9.4 100 100 W 5 7 30.00 1016 3 4 0.00 0.00
1:19 am 01:19 Cloudy with Light Rain 51 10.6 51 10.6 100 100 W 7 11 30.00 1016 5 8 0.01 0.25
1:53 am 01:53 Mostly Cloudy 55 12.8 54 12.2 96 96 S 10 17 29.98 1015 10 16 0.01 0.25
2:53 am 02:53 Cloudy with Rain 57 13.9 56 13.3 96 96 SSW 10 17 29.99 1016 4 6 0.03 0.76
3:10 am 03:10 Cloudy 57 13.9 56 13.3 96 96 SSW 13 20 30.00 1016 10 16 0.00 0.00
3:53 am 03:53 Cloudy 57 13.9 56 13.3 96 96 S 16 26 29.95 1014 10 16 0.02 0.51
4:46 am 04:46 Cloudy 57 14 57 14 100 100 SSW 12 19 29.91 1013 10 16 0.00 0.00
4:53 am 04:53 Cloudy with Light Rain 58 14.4 57 13.9 97 97 S 16 26 29.93 1013 7 11 0.14 3.56
5:03 am 05:03 Cloudy with Rain 57 14 57 14 100 100 S 16 26 29.91 1013 4 6 0.00 0.00
5:19 am 05:19 Cloudy with Light Rain 58 14.4 57 13.9 97 97 S 15 24 29.91 1013 10 16 0.03 0.76
5:53 am 05:53 Cloudy 58 14.4 57 13.9 97 97 S 14 22 29.91 1013 10 16 0.04 1.02
6:53 am 06:53 Cloudy 59 15 57 13.9 93 93 SSW 12 19 29.91 1013 10 16 0.00 0.00
7:53 am 07:53 Cloudy 59 15 57 13.9 93 93 S 12 19 29.91 1013 10 16 0.00 0.00
8:53 am 08:53 Mostly Cloudy 60 15.6 57 13.9 90 90 SSW 12 19 29.91 1013 10 16 0.00 0.00
9:53 am 09:53 Cloudy 61 16.1 57 13.9 87 87 SSW 15 24 29.91 1013 10 16 0.00 0.00
10:53 am 10:53 Mostly Cloudy 62 16.7 57 13.9 84 84 SSW 14 22 29.91 1013 10 16 0.00 0.00
11:53 am 11:53 Mostly Cloudy 65 18.3 56 13.3 73 73 SW 13 20 29.90 1013 10 16 0.00 0.00
12:11 pm 12:11 Mostly Cloudy 63 17 55 13 77 77 WNW 15 24 29.91 1013 10 16 0.00 0.00
12:23 pm 12:23 Mostly Cloudy 61 16.1 54 12.2 78 78 W 14 22 29.91 1013 10 16 0.00 0.00
12:53 pm 12:53 Mostly Cloudy 61 16.1 54 12.2 78 78 WSW 13 20 29.90 1012 10 16 0.00 0.00
1:19 pm 13:19 Mostly Cloudy 61 16.1 53 11.7 75 75 W 15 24 29.91 1013 10 16 0.00 0.00
1:53 pm 13:53 Mostly Cloudy 60 15.6 52 11.1 75 75 WSW 14 22 29.90 1013 10 16 0.00 0.00
2:53 pm 14:53 Cloudy 59 15 50 10 72 72 W 14 22 29.91 1013 10 16 0.00 0.00
3:53 pm 15:53 Mostly Cloudy 57 13.9 48 8.9 72 72 WSW 14 22 29.93 1013 10 16 0.00 0.00
4:15 pm 16:15 Mostly Cloudy 56 13.3 47 8.3 72 72 W 16 26 29.94 1014 10 16 0.00 0.00
4:53 pm 16:53 Mostly Cloudy 55 12.8 46 7.8 72 72 W 14 22 29.95 1014 10 16 0.00 0.00
5:53 pm 17:53 Cloudy 53 11.7 45 7.2 74 74 W 12 19 29.98 1015 10 16 0.00 0.00
6:53 pm 18:53 Cloudy 50 10 44 6.7 80 80 W 13 20 30.01 1016 10 16 0.00 0.00
7:53 pm 19:53 Cloudy 49 9.4 42 5.6 77 77 WSW 16 26 30.04 1017 10 16 0.00 0.00
8:53 pm 20:53 Cloudy 48 8.9 41 5 77 77 W 13 20 30.04 1017 10 16 0.00 0.00
9:49 pm 21:49 Cloudy 46 8 41 5 82 82 WSW 8 13 30.06 1018 10 16 0.00 0.00
9:53 pm 21:53 Cloudy 47 8.3 41 5 80 80 WSW 8 13 30.06 1018 10 16 0.00 0.00
10:53 pm 22:53 Cloudy 47 8.3 41 5 80 80 W 9 15 30.06 1018 10 16 0.00 0.00
11:04 pm 23:04 Cloudy 46 8 41 5 82 82 W 13 20 30.06 1018 10 16 0.00 0.00
11:42 pm 23:42 Cloudy 46 8 41 5 82 82 WSW 8 13 30.06 1018 10 16 0.00 0.00
11:53 pm 23:53 Cloudy 46 7.8 42 5.6 86 86 WSW 8 13 30.06 1018 10 16 0.00 0.00

Powered by AerisWeather